Tracking 25656 objects as of 21-May-2022
HD Live streaming from Space Station
objects crossing your sky now

TITAN 3C TRANSTAGE DEB

Track TITAN 3C TRANSTAGE DEB now!
10-day predictions


NORAD ID: 1653
Int'l Code: 1965-082Q
Perigee: 662.7 km
Apogee: 722.7 km
Inclination: 32.1 °
Period: 98.5 minutes
Semi major axis: 7063 km
RCS: 0.6097 m2 (medium)
Launch date: October 15, 1965
Source: United States (US)
Launch site: AIR FORCE EASTERN TEST RANGE (AFETR)

Note: This is SATELLITE DEBRIS
aabbcc
Your satellite tracking list
Your tracking list is empty




NASA's NSSDC Master Catalog

Two Line Element Set (TLE):
1 01653U 65082Q   22141.00025064  .00000446  00000-0  77985-4 0  9997
2 01653  32.1207 341.4459 0042419 280.5107  79.0760 14.62357741993353
Source of the keplerian elements: AFSPC